Timeline UpdatesTrip UpdatesNews PostsPvt Posts♥♥Travel TipsAdmin PostsConv PostsFollowed PostsChat RequestsBlog PostsPNR Posts

Disclaimer
Search
 
 
Fri Nov 28, 2014 06:59:34 ISTHomeTrainsΣChainsAtlasPNRForumGalleryNewsFAQTripsMembersLoginFeedback
No Recent News for this Train
Other Trains in the News **new
Latest...
.
Sat Feb 02, 2013 (04:10PM)
⇐ Return Journey: Train# 51187

51188/Katni - Bhusaval Passenger (UnReserved)

Time-Table HAS CHANGED.
Sep 05 2014 (2:13PM)
Change Departure Station:
Change Arrival Station:
Post a Train Travel TipPost a Train Travel Tip **new
Post a Comment/Question/Picture/VideoPost a Comment/Question/Picture/Video
Pantry/Catering
✕ NO Pantry Car
✕ NO Catering
RSA - Rake Sharing
Rake/Coach Composition
Loco
KTE-ET: KTE/ET WDM-3A ET-BSL: BSL/ET WAP-4
News    PNR    Forum    Time-Table    Availability    Fare Chart    Map    Arr/Dep History    Trips    Gallery    ΣChains    X/O    Timeline    
Travel Time: 16h 14m    64 halts    Distance: 569 km    Avg Speed: 35 km/hr
Type: Passenger
Zone: CR/Central
Departs @ 22:20 (Avg 1h 0m late)
Platform# 5
SMTWTFS
Katni Junction/KTE 
Arrives @ 14:34 +1 night (Avg 3h 57m late)
Platform# ???
SMTWTFS
Chandni/CDI 

64 halts. 70 intermediate Stations between Katni Junction and Chandni

Show ALL intermediate Stations  Show Old Time-Table

#TrkCodeStation NameX/OArrivesAvgDepartsAvgHaltPFDay#KmSpeedElevZoneAddress
1%==|KTEKatni Junction (6)»  -22:20+1:00510.032387mWCRKatni, Madhya Pradesh
2|==|MDRRMadhavnagar Road (2)  22:30-22:31-1m--15.347398mWCRMadhavnagar, Madhya Pradesh
3|==|NWRNiwar (2)X  22:41+2:0322:42+2:031m--113.252412mWCRPipraundh, Madhya Pradesh
4|==|SNRRSansarpur (2)X  22:51-22:52-1m--120.959436mWCRNational Highway 7, Madhya Pradesh
5|==|SBDSleemanabad Road (2)  22:59+4123:00+411m--127.857434mWCRSleemanabad, Madhya Pradesh
6|==|DDCEDundi (2)  23:10+1:5923:11+2:061m--137.360415mWCRDundi, Madhya Pradesh
7|==|SHRSihora Road (2)X  23:26+1:4923:28+2:022m--152.361388mWCRJabalpur, Madhya Pradesh
8|==|GSPRGosalpur (2)XO  23:39+2:2023:40+2:331m--163.457396mWCRJabalpur, Madhya Pradesh
9|==|DOEDeori (2)  23:51+2:1223:52+2:161m--173.948392mWCRJabalpur, Madhya Pradesh
10|==|ADTLAdhartal (2)  00:03+2:3200:04+2:351m--282.782393mWCRJabalpur, Madhya Pradesh
11|==|JBPJabalpur Junction (4)X  00:20 00:10+4400:30 00:20+5210m1290.914416mWCRJabalpur, Madhya Pradesh
12|==|MMLMadan Mahal (3)  00:34+2:0400:36+2:052m1294.256428mWCRJabalpur, Madhya Pradesh
13|==|BRGTBheraghat (2)  00:50+3:1100:51+3:221m--2107.352389mWCRBheraghat, Madhya Pradesh
14|==|BHTNBhitoni (2)X  01:04 01:06+3:1701:05 01:08+3:271 2m--2120.469380mWCRJabalpur, Madhya Pradesh
15|==|BMRBikrampur (2)  01:17 01:18+3:1501:18 01:20+3:211 2m--2132.059376mWCRBikrampur Dist Narsingpur., Madhya Pradesh
16|==|SRIDShridham (3)X  01:29 01:32+1:2201:31 01:34+1:242m32143.766373mWCRShridham, Madhya Pradesh
17|==!KKBKarak Bel (2)  01:48+3:3501:49+3:361m--2159.229375mWCRKarak Bel, Madhya Pradesh
18|==!BELDBelkhera (2)  01:58+3:1301:59+3:161m--2163.633367mWCRState Highway 22, Madhya Pradesh
19!==|GPCGhatpindrai (2)  02:09+3:3302:10+3:331m--2169.135366mWCRGhatpindra, Madhya Pradesh
20|==|NUNarsinghpur (2)X  02:20+2:0702:22+2:162m22174.968365mWCRNarsimhapur, Madhya Pradesh
21|==|KYKareli (2)X  02:36+3:2802:37+3:301m22190.747365mWCRKareli, Madhya Pradesh
22|==|KFYKarapgaon (2)X  02:48-02:49-1m--2199.347363mWCRNational Highway 26, Madhya Pradesh
23|==|BNEBohani (2)XO  02:58+3:4102:59+3:461m--2206.378361mWCRNarsinghpur, Madhya Pradesh
24|==|GARGadarwara (2)XO  03:09+3:4703:10+3:531m22219.256353mWCRNarsinghpur, Madhya Pradesh
25|==|SCKRSalichauka Road (2)X  03:25+3:5003:26+3:511m--2233.161355mWCRGadarwara, Madhya Pradesh
26|==|JHTJunehta (2)  03:36-03:37-1m--2243.351353mWCRState Highway 22, Madhya Pradesh
27|==|BKHBankhedi (2)X  03:44+3:4903:46+3:542m--2249.269351mWCRBankheri, Madhya Pradesh
28|==|PPIPipariya (3)X  04:03+3:0004:05+3:112m32268.640339mWCRPiparia, Madhya Pradesh
29|==|SXFSobhapur (2)O  04:18-04:19-1m--2277.245338mWCRState Highway 22, Madhya Pradesh
30|==|SGPSohagpur (2)X  04:31+3:5804:33+4:032m--2286.343340mWCRSohagpur, Madhya Pradesh
31|==|GMDGuramkhedi (2)  04:47+3:5604:48+4:071m--2296.449337mWCRGuramkhedi, Madhya Pradesh
32|=-|BGTABagratawa (2)  05:04+4:0205:05+4:121m--2309.429338mWCRBagra Tawa, Madhya Pradesh
33|-=|SQLSontalai (2)X  05:19+4:0805:20+4:111m--2316.327329mWCRItarsi, Madhya Pradesh
34|==|GROGurra (2)X  05:40+4:0105:41+4:021m--2325.316327mWCRItarsi, Madhya Pradesh
35|==|ETItarsi Junction (7)  06:20+1:3706:45+1:3625m--2335.857329mWCRItarsi 461111, Madhya Pradesh
36/==/DRADularia (2)  06:58+4:0206:59+4:061m--2348.142318mWCRItarsi, Madhya Pradesh
37/==/KTZKhutwansa (2)X  07:07-07:08-1m--2353.755325mWCRSH 15, Madhya Pradesh
38/==/DKIDharamkundi (2)O  07:17 07:16+4:0207:18+4:021 2m--2361.131314mWCRSH 15, Madhya Pradesh
39/==/BPFBanapura (2)  07:34+3:5307:35+3:541m--2369.349314mWCRBanapura, Madhya Pradesh
40/==/BIFBhaironpur (2)O  07:44+3:5307:45+3:541m--2376.649322mWCRSH 15, Madhya Pradesh
41/==/PGLPagdhal (2)X  07:54+3:5207:55+4:011m--2383.941317mWCRPagdhal, Madhya Pradesh
42/==/CGOChhidgaon (2)X  08:01-08:02-1m--2388.026309mWCRHarda, Madhya Pradesh
43/==/TBNTimarni (2)  08:24+4:1008:25+4:111m--2397.547308mWCRTimarni, Madhya Pradesh
44/==/CRKCharkhera (2)XO  08:34+3:4408:35+3:521m--2404.623298mWCRBarkalan, Madhya Pradesh
45/==/HDHarda (3)X  08:53+4:0508:55+4:142m--2411.674289mWCRHarda, Madhya Pradesh
46/==/PALPalasner (2)  09:02 09:01+3:3909:03+3:391 2m--2419.044296mWCRHarda, Madhya Pradesh
47/==/MUOMasangaon (2)XO  09:12 09:11+3:3609:13+3:361 2m--2425.012303mWCRSH 15, Madhya Pradesh
48/==/BRIBhiringi (2)  09:39 09:38+3:2209:40+3:301 2m--2430.1133294mWCRSH 15, Madhya Pradesh
49/==/KROKurawan (2)X  09:44 09:43-09:45-1 2m--2436.829297mWCRSH 15, Madhya Pradesh
50/==/KKNKhirkiya (2)O  09:58+3:2610:00+3:262m12443.241281mWCRSH 15, Madhya Pradesh
51/==/DRHIDagarhkeri (2)XO  10:17 10:16+3:2210:18+3:291 2m--2454.121274mWCRState Highway 15, Madhya Pradesh
52/==/BRUDBarud (2)X  10:47 10:46+3:1010:48+3:191 2m--2463.776273mWCRKhandwa, Madhya Pradesh
53/==/CAERChhanera (2)XO  10:56+3:1910:58+3:252m--2473.923283mWCRChhanera, Madhya Pradesh
54/==/CKKDCharkheda Khurd (2)  11:17 11:16+3:1511:18+3:151 2m--2480.624274mWCRKhandwa, Madhya Pradesh
55/==/SGBJSurgaon Banjari (2)  11:47 11:46+2:5611:48+3:221 2m--2491.871298mWCRKhandwa, Madhya Pradesh
56/==/TLVTalvadiya (2)  11:58+3:2612:00+3:252m--2503.563308mWCRKhandwa, Madhya Pradesh
57/==/MTAMathela (2)XO  12:09 12:08+3:2712:10+3:261 2m--2511.96322mWCRKhandwa, Madhya Pradesh
58/==/KNWKhandwa Junction (5)  13:20+2:4213:30+2:4110m--2519.344310mCRKhandwa, Madhya Pradesh
59/==/BRGJBargaon Gujar (2)  13:37+5:0913:38+5:091m--2524.460316mCRKhandwa, Madhya Pradesh
60/==/BMABagmar (2)X  13:44+3:4413:45+3:441m--2530.466335mCRState Highway 27, Madhya Pradesh
61/==/KDKKohdad (2)X  13:49+3:4613:50+3:461m--2534.857344mCRState Highway 15, Madhya Pradesh
62/==/DGNDongargaon (2)  13:58+3:4713:59+3:571m12542.458373mCRBorgaon, Madhya Pradesh
63/==/SXASagphata (2)  14:07+5:3014:08+5:301m--2550.151350mCRKhandwa, Madhya Pradesh
64/==/MWAMandwa (2)X  14:15+3:5814:16+3:581m--2556.144317mCRState Highway 27, Madhya Pradesh
65/==/NPNRNepanagar (2)  14:24+4:1314:26+4:122m--2561.953289mCRState Highway 27, Madhya Pradesh
66/==/CDIChandni (2)•X  14:34+3:5714:35+3:571m--2569.077276mCRNepanagar Rd, Madhya Pradesh
67/==/AGQAsirgarh Road (2)  14:43+3:5714:44+3:581m--2579.267259mCRState Highway 27, Madhya Pradesh
68/==/BAUBurhanpur (2)X  14:52+3:3614:55+3:353m12588.162269mCRBurhanpur, Madhya Pradesh
69/==/WGAWaghodaX  15:05+3:5815:06+3:591m--2598.460259mCRChorwad, Maharashtra
70/==/RVRaver (2)X  15:16+2:0915:18+2:082m--2608.368242mCRJalgaon, Maharashtra
71/==/NBNimbhora (2)X  15:27+2:2715:28+2:281m--2618.558229mCRJalgaon, Maharashtra
72/==/SAVSavda (2)  15:37-15:38-1m--2627.258220mCRSavda, Maharashtra
73/==/DSKDuskheda (2)X  15:47-15:48-1m--2635.96213mCRDuskheda Station, Maharashtra
74/==/BSLBhusaval Junction (8)  17:00+2:34-62642.6-208mCRBhusaval 425201, Maharashtra
Scroll to Top
Scroll to Bottom